Weather Roundup
Issued by NWS

Home | Current Version | Previous Version | Text Only | Print | Product List | Glossary On
Versions: 1 2 3 4 5 6 7 8 9 10 11 12 13 14 15 16 17 18 19 20 21 22 23 24 25 26 27 28 29 30 31 32 33 34 35 36 37 38 39 40 41 42 43 44 45 46 47 48 49 50
102
NZUS93 KARX 252059
HRRWXR

CURRENT HOURLY OBSERVATIONS ACROSS
MUCH OF THE UPPER MISSISSIPPI VALLEY
NATIONAL WEATHER SERVICE LA CROSSE WI
400 PM CDT THU MAY 25 2017


...SOUTHEAST MINNESOTA...


CITY           SKY/WX    TMP DP  RH WIND       PRES   REMARKS
ROCHESTER      MOSUNNY   68  54  60 S9        29.66F
ROCHESTER/MAYO FAIR      69  48  48 SE13      29.66F
WINONA         SUNNY     70  52  52 SE3       29.66F
AUSTIN         SUNNY     66  52  59 SE8       29.65F
ALBERT LEA     SUNNY     70  48  46 S10G18    29.64F
DODGE CENTER   SUNNY     66  50  55 S13       29.65F
PRESTON        PTSUNNY   68  51  54 SE8       29.67F
OWATONNA       MOSUNNY   70  50  49 SE10      29.65S
FARIBAULT      CLOUDY    70  52  52 S10G17    29.65S
$$

...ELSEWHERE IN MINNESOTA...


CITY           SKY/WX    TMP DP  RH WIND       PRES   REMARKS
MINNEAPOLIS    LGT RAIN  66  51  58 S8        29.64F
INTNL FALLS    CLOUDY    68  45  43 S8G22     29.62F
DULUTH         MOSUNNY   65  47  52 E13       29.67F
RED WING       SUNNY     72  48  43 SE8       29.64F
REDWOOD FALLS  MOSUNNY   70  49  47 S18       29.57F
MANKATO        MOSUNNY   68  50  52 SE13G21   29.62F
WORTHINGTON    CLOUDY    70  49  47 S16G23    29.57S
FAIRMONT       CLOUDY    70  49  47 S21       29.60F
$$

...SOUTHWEST WISCONSIN...


CITY           SKY/WX    TMP DP  RH WIND       PRES   REMARKS
LA CROSSE      MOSUNNY   73  56  54 SW8       29.65F
PRAIRIE DU CHI SUNNY     71  52  49 S5        29.66S
BOSCOBEL       MOSUNNY   73  53  49 VRB5      29.67S
LONE ROCK      NOT AVBL
PLATTEVILLE    MOSUNNY   67  58  72 NE5       29.68F
FORT MC COY    SUNNY     71  52  50 S3        29.66F
MAUSTON-NEW LI PTCLDY    71  53  53 SE3       29.66S
VIROQUA        MOCLDY    69  53  56 MISG      29.68S
WIS DELLS      MOSUNNY   71  50  46 CALM      29.67S
$$

...ELSEWHERE IN WISCONSIN...


CITY           SKY/WX    TMP DP  RH WIND       PRES   REMARKS
MILWAUKEE      MOSUNNY   61  51  70 NE16G22   29.66S
MADISON        PTSUNNY   69  54  58 NE10      29.66F
GREEN BAY      SUNNY     68  54  60 NE13      29.67F
EAU CLAIRE     MOSUNNY   72  50  45 SE5       29.64F
BLACK RVR FLS  MOCLDY    74  48  38 S6        29.64F
MEDFORD        PTSUNNY   70  51  51 S5        29.67S
WAUSAU         MOSUNNY   72  49  44 SW7       29.65S
WIS RAPIDS     MOSUNNY   74  50  42 VRB3      29.67F
MARSHFIELD     MOSUNNY   72  50  45 SE7       29.66F
RICE LAKE      MOSUNNY   70  47  45 SE9       29.68F
$$

...NORTHEAST IOWA...


CITY           SKY/WX    TMP DP  RH WIND       PRES   REMARKS
WATERLOO       SUNNY     72  48  42 S9        29.64F
DUBUQUE        SUNNY     68  54  60 NW5       29.68S
DECORAH        SUNNY     68  50  52 S7        29.67S
MASON CITY     SUNNY     69  49  48 SE13      29.65F
CHARLES CITY   SUNNY     70  50  49 SE7G16    29.67F
OELWEIN        SUNNY     70  50  49 S9        29.67F
$$

...ELSEWHERE IN IOWA...


CITY           SKY/WX    TMP DP  RH WIND       PRES   REMARKS
DES MOINES     MOSUNNY   73  49  42 SE9       29.63F
IOWA CITY      SUNNY     73  53  49 S8        29.68S
FORT DODGE     SUNNY     72  50  46 S12G21    29.62F
MARSHALLTOWN   SUNNY     69  49  48 S12       29.64F
CEDAR RAPIDS   SUNNY     69  52  54 SE5       29.66F
$$

...NORTHERN ILLINOIS...


CITY           SKY/WX    TMP DP  RH WIND       PRES   REMARKS
CHICAGO-OHARE  CLOUDY    68  52  56 N9        29.64S
CHICAGO-MIDWAY PTSUNNY   68  54  60 N9        29.64S
MOLINE         MOSUNNY   71  51  49 SE3       29.66
ROCKFORD       MOSUNNY   70  54  56 VRB7      29.68F
PEORIA         MOSUNNY   72  58  61 N6        29.68F
$$

NOTE: "FAIR" INDICATES FEW OR NO CLOUDS BELOW 12,000 FEET WITH NO
SIGNIFICANT WEATHER AND/OR OBSTRUCTIONS TO VISIBILITY. WIND
SPEEDS ARE IN MILES-PER-HOUR.




USA.gov is the U.S. government's official web portal to all federal, state and local government web resources and services.